• In Hungary
  • List of Countries
  • For 7 days
  • Water Temperature
  • Satellite Maps
  • Weather Map
  • News
  • Weather Widgets
  • user-avatar
    Login

    Hourly Weather Jarrow

    Today, 21 November, Tuesday

    Time Temperature Precipitation Wind Pressure Humidity
    00:00 +10°C° 0 mm 1 mps 752 mmHg 95%
    01:00 +10°C° 0.4 mm 1 mps 752 mmHg 95%
    02:00 +10°C° 0.4 mm 1 mps 751 mmHg 96%
    03:00 +9°C° 0.4 mm 2 mps 751 mmHg 96%
    04:00 +9°C° 1.5 mm 2 mps 751 mmHg 96%
    05:00 +9°C° 1.5 mm 2 mps 750 mmHg 96%
    06:00 +9°C° 1.5 mm 2 mps 750 mmHg 96%
    07:00 +10°C° 0.9 mm 3 mps 750 mmHg 96%
    08:00 +10°C° 0.9 mm 3 mps 750 mmHg 96%
    09:00 +11°C° 0.9 mm 4 mps 749 mmHg 95%
    10:00 +11°C° 0.1 mm 4 mps 749 mmHg 93%
    11:00 +12°C° 0.1 mm 5 mps 749 mmHg 91%
    12:00 +13°C° 0.1 mm 5 mps 748 mmHg 88%
    13:00 +13°C° 0.1 mm 6 mps 747 mmHg 88%
    14:00 +11°C° 0.1 mm 6 mps 747 mmHg 87%
    15:00 +11°C° 0.1 mm 7 mps 746 mmHg 86%
    16:00 +11°C° 0.3 mm 7 mps 745 mmHg 86%
    17:00 +11°C° 0.3 mm 7 mps 744 mmHg 87%
    18:00 +11°C° 0.3 mm 8 mps 744 mmHg 87%
    19:00 +11°C° 0 mm 8 mps 743 mmHg 87%
    20:00 +12°C° 0 mm 8 mps 743 mmHg 87%
    21:00 +12°C° 0 mm 8 mps 742 mmHg 87%
    22:00 +12°C° 0.1 mm 8 mps 742 mmHg 87%
    23:00 +12°C° 0.1 mm 8 mps 742 mmHg 86%

    Tomorrow, 22 November, Wednesday

    Time Temperature Precipitation Wind Pressure Humidity
    00:00 +12°C° 0.1 mm 8 mps 741 mmHg 86%
    01:00 +12°C° 0 mm 7 mps 741 mmHg 87%
    02:00 +12°C° 0 mm 7 mps 741 mmHg 87%
    03:00 +11°C° 0 mm 6 mps 740 mmHg 88%
    04:00 +11°C° 0.1 mm 6 mps 740 mmHg 87%
    05:00 +11°C° 0.1 mm 6 mps 740 mmHg 87%
    06:00 +12°C° 0.1 mm 5 mps 739 mmHg 87%
    07:00 +11°C° 0.3 mm 6 mps 739 mmHg 86%
    08:00 +11°C° 0.3 mm 6 mps 738 mmHg 86%
    09:00 +12°C° 0.3 mm 7 mps 738 mmHg 85%
    10:00 +12°C° 0.8 mm 8 mps 737 mmHg 83%
    11:00 +13°C° 0.8 mm 9 mps 736 mmHg 81%
    12:00 +13°C° 0.8 mm 11 mps 735 mmHg 80%
    13:00 +13°C° 0.4 mm 11 mps 734 mmHg 81%
    14:00 +13°C° 0.4 mm 11 mps 733 mmHg 81%
    15:00 +13°C° 0.4 mm 11 mps 732 mmHg 82%
    16:00 +13°C° 0.4 mm 9 mps 732 mmHg 84%
    17:00 +12°C° 0.4 mm 8 mps 733 mmHg 85%
    18:00 +12°C° 0.4 mm 7 mps 733 mmHg 86%
    19:00 +11°C° 1.1 mm 6 mps 732 mmHg 88%
    20:00 +12°C° 1.1 mm 5 mps 732 mmHg 89%
    21:00 +11°C° 1.1 mm 4 mps 732 mmHg 90%
    22:00 +11°C° 1 mm 4 mps 732 mmHg 90%
    23:00 +11°C° 1 mm 4 mps 732 mmHg 89%

    Day after tomorrow, 23 November, Thursday

    Time Temperature Precipitation Wind Pressure Humidity
    00:00 +11°C° 1 mm 4 mps 731 mmHg 89%
    01:00 +10°C° 0.1 mm 5 mps 731 mmHg 88%
    02:00 +11°C° 0.1 mm 6 mps 731 mmHg 87%
    03:00 +11°C° 0.1 mm 7 mps 731 mmHg 85%
    04:00 +10°C° 0 mm 7 mps 732 mmHg 83%
    05:00 +10°C° 0 mm 8 mps 732 mmHg 81%
    06:00 +8°C° 0 mm 9 mps 733 mmHg 79%
    07:00 +7°C° 0 mm 9 mps 734 mmHg 76%
    08:00 +6°C° 0 mm 9 mps 736 mmHg 72%
    09:00 +3°C° 0 mm 10 mps 737 mmHg 69%
    10:00 +5°C° 0 mm 10 mps 738 mmHg 67%
    11:00 +4°C° 0 mm 11 mps 739 mmHg 64%
    12:00 +6°C° 0 mm 11 mps 740 mmHg 62%
    13:00 +6°C° 0 mm 11 mps 740 mmHg 62%
    14:00 +6°C° 0 mm 11 mps 740 mmHg 63%
    15:00 +6°C° 0 mm 11 mps 740 mmHg 63%
    16:00 +6°C° 0 mm 11 mps 740 mmHg 64%
    17:00 +6°C° 0 mm 11 mps 740 mmHg 66%
    18:00 +6°C° 0 mm 10 mps 741 mmHg 67%
    19:00 +5°C° 0 mm 10 mps 742 mmHg 68%
    20:00 +5°C° 0 mm 10 mps 742 mmHg 70%
    21:00 +5°C° 0 mm 10 mps 743 mmHg 71%
    22:00 +3°C° 0 mm 9 mps 744 mmHg 73%
    23:00 +4°C° 0 mm 8 mps 745 mmHg 76%

    24 November, Friday

    Time Temperature Precipitation Wind Pressure Humidity
    00:00 +3°C° 0 mm 7 mps 746 mmHg 78%
    01:00 +3°C° 0 mm 6 mps 747 mmHg 80%
    02:00 +2°C° 0 mm 5 mps 748 mmHg 81%
    03:00 +3°C° 0 mm 4 mps 748 mmHg 83%
    04:00 +3°C° 0 mm 3 mps 748 mmHg 82%
    05:00 +3°C° 0 mm 3 mps 749 mmHg 82%
    06:00 +4°C° 0 mm 2 mps 749 mmHg 82%
    07:00 +4°C° 0 mm 2 mps 749 mmHg 80%
    08:00 +5°C° 0 mm 1 mps 750 mmHg 78%
    09:00 +5°C° 0 mm 1 mps 750 mmHg 77%
    10:00 +6°C° 0 mm 1 mps 750 mmHg 74%
    11:00 +6°C° 0 mm 1 mps 750 mmHg 71%
    12:00 +7°C° 0 mm 1 mps 750 mmHg 68%
    13:00 +6°C° 0.1 mm 1 mps 750 mmHg 70%
    14:00 +6°C° 0.1 mm 1 mps 749 mmHg 73%
    15:00 +6°C° 0.1 mm 1 mps 749 mmHg 75%
    16:00 +6°C° 0.1 mm 1 mps 749 mmHg 77%
    17:00 +5°C° 0.1 mm 1 mps 749 mmHg 78%
    18:00 +5°C° 0.1 mm 1 mps 749 mmHg 80%
    19:00 +5°C° 0 mm 1 mps 749 mmHg 80%
    20:00 +4°C° 0 mm 1 mps 749 mmHg 81%
    21:00 +3°C° 0 mm 2 mps 749 mmHg 82%
    22:00 +3°C° 0 mm 2 mps 749 mmHg 82%
    23:00 +2°C° 0 mm 2 mps 749 mmHg 82%

    25 November, Saturday

    Time Temperature Precipitation Wind Pressure Humidity
    00:00 +2°C° 0 mm 2 mps 749 mmHg 83%
    01:00 +2°C° 0 mm 2 mps 749 mmHg 83%
    02:00 +1°C° 0 mm 3 mps 749 mmHg 83%
    03:00 +1°C° 0 mm 3 mps 749 mmHg 83%
    04:00 +1°C° 0 mm 3 mps 749 mmHg 83%
    05:00 0°C° 0 mm 4 mps 749 mmHg 83%
    06:00 0°C° 0 mm 4 mps 749 mmHg 83%
    07:00 0°C° 0 mm 5 mps 750 mmHg 81%
    08:00 +1°C° 0 mm 5 mps 750 mmHg 80%
    09:00 +1°C° 0 mm 6 mps 750 mmHg 78%
    10:00 +1°C° 0 mm 6 mps 750 mmHg 73%
    11:00 +2°C° 0 mm 6 mps 751 mmHg 68%
    12:00 +2°C° 0 mm 7 mps 751 mmHg 63%
    13:00 +2°C° 0 mm 6 mps 751 mmHg 64%
    14:00 +2°C° 0 mm 6 mps 752 mmHg 65%
    15:00 +2°C° 0 mm 6 mps 752 mmHg 66%
    16:00 +1°C° 0 mm 6 mps 753 mmHg 69%
    17:00 +1°C° 0 mm 6 mps 753 mmHg 71%
    18:00 -1°C° 0 mm 6 mps 754 mmHg 74%
    19:00 -1°C° 0 mm 6 mps 754 mmHg 75%
    20:00 -1°C° 0 mm 6 mps 755 mmHg 76%
    21:00 -1°C° 0 mm 6 mps 755 mmHg 77%
    22:00 -1°C° 0 mm 6 mps 756 mmHg 76%
    23:00 -1°C° 0 mm 6 mps 756 mmHg 76%

    26 November, Sunday

    Time Temperature Precipitation Wind Pressure Humidity
    00:00 -1°C° 0 mm 7 mps 757 mmHg 76%
    01:00 0°C° 0 mm 7 mps 757 mmHg 76%
    02:00 0°C° 0 mm 7 mps 757 mmHg 76%
    03:00 0°C° 0 mm 8 mps 758 mmHg 76%
    04:00 0°C° 0 mm 8 mps 758 mmHg 76%
    05:00 0°C° 0 mm 8 mps 758 mmHg 76%
    06:00 0°C° 0 mm 8 mps 759 mmHg 76%
    07:00 0°C° 0 mm 8 mps 759 mmHg 75%
    08:00 0°C° 0 mm 8 mps 760 mmHg 74%
    09:00 0°C° 0 mm 8 mps 760 mmHg 74%
    10:00 +1°C° 0 mm 8 mps 760 mmHg 72%
    11:00 +1°C° 0 mm 8 mps 761 mmHg 70%
    12:00 +2°C° 0 mm 8 mps 761 mmHg 68%
    13:00 +2°C° 0 mm 8 mps 761 mmHg 70%
    14:00 +2°C° 0 mm 8 mps 762 mmHg 71%
    15:00 +3°C° 0 mm 7 mps 762 mmHg 73%
    16:00 +2°C° 0 mm 7 mps 762 mmHg 75%
    17:00 +1°C° 0 mm 8 mps 762 mmHg 76%
    18:00 0°C° 0 mm 8 mps 763 mmHg 78%
    19:00 0°C° 0 mm 8 mps 763 mmHg 77%
    20:00 0°C° 0 mm 8 mps 763 mmHg 76%
    21:00 0°C° 0 mm 8 mps 763 mmHg 74%
    22:00 0°C° 0 mm 8 mps 763 mmHg 74%
    23:00 0°C° 0 mm 8 mps 763 mmHg 74%
    Show more